Location: West Cummington
(42.4920°N, 72.9680°W)
Time: 18:27:40
(UTC-04:00)

Cosmos 1703 Rocket - Visible Passes

Search period start: 28 August 2016 00:00
Search period end: 07 September 2016 00:00
Orbit: 607 x 633 km, 82.5° (Epoch: 27 August)

Date Brightness Start Highest point End Pass type
(mag) Time Alt. Az. Time Alt. Az. Time Alt. Az.
28 Aug 5.6 03:53:55 10° SE 03:57:37 26° E 04:01:21 10° NNE visible
28 Aug 4.6 05:31:32 10° SW 05:35:24 28° WNW 05:39:17 10° NNW visible
29 Aug 4.5 04:11:59 18° SSE 04:15:06 48° E 04:19:26 10° NNE visible
30 Aug 3.5 04:30:10 26° S 04:32:42 89° W 04:37:12 10° N visible
31 Aug 6.1 03:11:07 13° ESE 03:12:56 16° E 03:15:36 10° NE visible
31 Aug 3.9 04:48:19 27° SW 04:50:23 47° WNW 04:54:44 10° N visible
01 Sep 5.3 03:29:13 25° ESE 03:30:20 28° E 03:34:10 10° NNE visible
01 Sep 4.7 05:06:25 20° WSW 05:08:10 26° WNW 05:11:57 10° NNW visible
02 Sep 4.2 03:47:16 49° ESE 03:47:50 52° E 03:52:13 10° NNE visible
02 Sep 5.4 05:24:28 13° W 05:26:04 15° WNW 05:28:39 10° NNW visible
03 Sep 3.4 04:05:17 80° WSW 04:05:26 82° W 04:09:57 10° N visible
04 Sep 6.1 02:46:04 17° ENE 02:46:04 17° ENE 02:48:31 10° NE visible
04 Sep 4.0 04:23:16 43° WNW 04:23:16 43° WNW 04:27:26 10° N visible
05 Sep 5.5 03:04:01 28° ENE 03:04:01 28° ENE 03:06:59 10° NNE visible
05 Sep 4.9 04:41:13 24° WNW 04:41:13 24° WNW 04:44:36 10° NNW visible
06 Sep 4.9 03:21:56 39° NE 03:21:56 39° NE 03:24:59 10° NNE visible
06 Sep 5.5 04:59:08 14° WNW 04:59:08 14° WNW 05:01:11 10° NW visible
